Time,TemperatureF,DewpointF,PressureIn,WindDirection,WindDirectionDegrees,WindSpeedMPH,WindSpeedGustMPH,Humidity,HourlyPrecipIn,Conditions,Clouds,dailyrainin,SoftwareType,DateUTC
2013-06-09 00:02:00,61.0,60.4,29.79,SE,135,2.0,11.0,98,0.00,,,0.00,Weather View 32 v70,2013-06-09 05:02:00,
2013-06-09 00:07:00,61.1,60.5,29.80,SE,135,2.0,11.0,98,0.00,,,0.00,Weather View 32 v70,2013-06-09 05:07:00,
2013-06-09 00:12:00,61.1,60.5,29.80,ESE,112,3.0,11.0,98,0.00,,,0.00,Weather View 32 v70,2013-06-09 05:12:00,
2013-06-09 00:17:00,61.1,60.5,29.80,SSW,202,2.0,9.0,98,0.00,,,0.00,Weather View 32 v70,2013-06-09 05:17:00,
2013-06-09 00:22:00,61.3,60.7,29.80,SW,225,0.0,9.0,98,0.00,,,0.00,Weather View 32 v70,2013-06-09 05:22:00,
2013-06-09 00:27:00,61.3,60.7,29.80,SW,225,1.0,9.0,98,0.00,,,0.00,Weather View 32 v70,2013-06-09 05:27:00,
2013-06-09 00:32:00,61.3,60.7,29.80,SW,225,2.0,6.0,98,0.00,,,0.00,Weather View 32 v70,2013-06-09 05:32:00,
2013-06-09 00:37:00,61.3,60.7,29.80,SW,225,4.0,6.0,98,0.00,,,0.00,Weather View 32 v70,2013-06-09 05:37:00,
2013-06-09 00:42:00,61.1,60.5,29.80,SSW,202,2.0,6.0,98,0.00,,,0.00,Weather View 32 v70,2013-06-09 05:42:00,
2013-06-09 00:47:00,60.9,60.3,29.80,SW,225,2.0,6.0,98,0.00,,,0.00,Weather View 32 v70,2013-06-09 05:47:00,
2013-06-09 00:52:00,60.9,60.3,29.80,SW,225,2.0,6.0,98,0.00,,,0.00,Weather View 32 v70,2013-06-09 05:52:00,
2013-06-09 00:57:00,60.8,60.2,29.80,SW,225,1.0,6.0,98,0.00,,,0.00,Weather View 32 v70,2013-06-09 05:57:00,
2013-06-09 01:02:00,60.7,60.1,29.80,SW,225,1.0,6.0,98,0.00,,,0.00,Weather View 32 v70,2013-06-09 06:02:00,
2013-06-09 01:07:00,60.5,59.9,29.80,West,270,4.0,7.0,98,0.02,,,0.02,Weather View 32 v70,2013-06-09 06:07:00,
2013-06-09 01:12:00,60.3,59.7,29.80,SW,225,1.0,7.0,98,0.03,,,0.03,Weather View 32 v70,2013-06-09 06:12:00,
2013-06-09 01:17:00,60.2,59.6,29.80,WSW,247,1.0,7.0,98,0.05,,,0.05,Weather View 32 v70,2013-06-09 06:17:00,
2013-06-09 01:22:00,60.1,59.5,29.80,SW,225,2.0,7.0,98,0.06,,,0.06,Weather View 32 v70,2013-06-09 06:22:00,
2013-06-09 01:27:00,60.1,59.5,29.79,SW,225,3.0,7.0,98,0.06,,,0.06,Weather View 32 v70,2013-06-09 06:27:00,
2013-06-09 01:32:00,60.1,59.5,29.79,SW,225,4.0,7.0,98,0.06,,,0.06,Weather View 32 v70,2013-06-09 06:32:00,
2013-06-09 01:37:00,60.0,59.4,29.79,WSW,247,2.0,7.0,98,0.06,,,0.06,Weather View 32 v70,2013-06-09 06:37:00,
2013-06-09 01:42:00,60.0,59.4,29.79,SW,225,4.0,7.0,98,0.06,,,0.06,Weather View 32 v70,2013-06-09 06:42:00,
2013-06-09 01:47:00,59.9,59.3,29.79,SW,225,4.0,7.0,98,0.07,,,0.07,Weather View 32 v70,2013-06-09 06:47:00,
2013-06-09 01:52:00,59.9,59.3,29.79,SW,225,1.0,7.0,98,0.07,,,0.08,Weather View 32 v70,2013-06-09 06:52:00,
2013-06-09 01:57:00,59.9,59.3,29.79,SW,225,1.0,7.0,98,0.09,,,0.09,Weather View 32 v70,2013-06-09 06:57:00,
2013-06-09 02:02:00,59.9,59.3,29.79,SW,225,3.0,7.0,98,0.09,,,0.09,Weather View 32 v70,2013-06-09 07:02:00,
2013-06-09 02:07:00,59.9,59.3,29.79,SW,225,2.0,7.0,98,0.08,,,0.10,Weather View 32 v70,2013-06-09 07:07:00,
2013-06-09 02:12:00,59.9,59.3,29.79,SW,225,4.0,7.0,98,0.07,,,0.10,Weather View 32 v70,2013-06-09 07:12:00,
2013-06-09 02:17:00,59.9,59.3,29.79,SW,225,2.0,7.0,98,0.05,,,0.10,Weather View 32 v70,2013-06-09 07:17:00,
2013-06-09 02:22:00,59.9,59.3,29.79,SW,225,5.0,7.0,98,0.04,,,0.10,Weather View 32 v70,2013-06-09 07:22:00,
2013-06-09 02:27:00,59.9,59.3,29.79,SW,225,3.0,7.0,98,0.05,,,0.11,Weather View 32 v70,2013-06-09 07:27:00,
2013-06-09 02:32:00,60.1,59.5,29.79,West,270,3.0,7.0,98,0.05,,,0.11,Weather View 32 v70,2013-06-09 07:32:00,
2013-06-09 02:37:00,60.1,59.5,29.79,West,270,4.0,7.0,98,0.05,,,0.11,Weather View 32 v70,2013-06-09 07:37:00,
2013-06-09 02:42:00,60.2,59.6,29.79,SW,225,2.0,7.0,98,0.05,,,0.11,Weather View 32 v70,2013-06-09 07:42:00,
2013-06-09 02:47:00,60.2,59.6,29.79,SW,225,4.0,7.0,98,0.04,,,0.11,Weather View 32 v70,2013-06-09 07:47:00,
2013-06-09 02:52:00,60.3,59.7,29.79,SW,225,5.0,9.0,98,0.04,,,0.11,Weather View 32 v70,2013-06-09 07:52:00,
2013-06-09 02:57:00,60.3,59.7,29.79,West,270,2.0,9.0,98,0.02,,,0.11,Weather View 32 v70,2013-06-09 07:57:00,
2013-06-09 03:02:00,60.3,59.7,29.79,West,270,5.0,9.0,98,0.02,,,0.11,Weather View 32 v70,2013-06-09 08:02:00,
2013-06-09 03:07:00,60.3,59.7,29.79,West,270,8.0,9.0,98,0.01,,,0.11,Weather View 32 v70,2013-06-09 08:07:00,
2013-06-09 03:12:00,60.4,59.8,29.79,SW,225,1.0,10.0,98,0.01,,,0.11,Weather View 32 v70,2013-06-09 08:12:00,
2013-06-09 03:17:00,60.4,59.8,29.79,SW,225,4.0,10.0,98,0.01,,,0.11,Weather View 32 v70,2013-06-09 08:17:00,
2013-06-09 03:22:00,60.4,59.8,29.79,WSW,247,3.0,10.0,98,0.01,,,0.11,Weather View 32 v70,2013-06-09 08:22:00,
2013-06-09 03:27:00,60.4,59.8,29.79,WSW,247,6.0,10.0,98,0.00,,,0.11,Weather View 32 v70,2013-06-09 08:27:00,
2013-06-09 03:32:00,60.4,59.8,29.79,SW,225,1.0,10.0,98,0.00,,,0.11,Weather View 32 v70,2013-06-09 08:32:00,
2013-06-09 03:37:00,60.4,59.8,29.79,WSW,247,7.0,10.0,98,0.00,,,0.11,Weather View 32 v70,2013-06-09 08:37:00,
2013-06-09 03:42:00,60.5,59.9,29.78,West,270,6.0,10.0,98,0.00,,,0.11,Weather View 32 v70,2013-06-09 08:42:00,
2013-06-09 03:47:00,60.5,59.9,29.78,WSW,247,2.0,10.0,98,0.00,,,0.11,Weather View 32 v70,2013-06-09 08:47:00,
2013-06-09 03:52:00,60.6,60.0,29.78,West,270,5.0,10.0,98,0.00,,,0.11,Weather View 32 v70,2013-06-09 08:52:00,
2013-06-09 03:57:00,60.6,60.0,29.78,SW,225,2.0,10.0,98,0.00,,,0.11,Weather View 32 v70,2013-06-09 08:57:00,
2013-06-09 04:02:00,60.7,60.1,29.78,WSW,247,8.0,10.0,98,0.00,,,0.11,Weather View 32 v70,2013-06-09 09:02:00,
2013-06-09 04:07:00,60.8,60.2,29.78,West,270,2.0,10.0,98,0.00,,,0.11,Weather View 32 v70,2013-06-09 09:07:00,
2013-06-09 04:12:00,60.8,60.2,29.78,West,270,4.0,9.0,98,0.00,,,0.11,Weather View 32 v70,2013-06-09 09:12:00,
2013-06-09 04:17:00,60.8,60.2,29.78,West,270,1.0,9.0,98,0.00,,,0.11,Weather View 32 v70,2013-06-09 09:17:00,
2013-06-09 04:22:00,60.8,60.2,29.78,West,270,2.0,9.0,98,0.00,,,0.11,Weather View 32 v70,2013-06-09 09:22:00,
2013-06-09 04:27:00,60.8,59.9,29.79,West,270,3.0,9.0,97,0.00,,,0.11,Weather View 32 v70,2013-06-09 09:27:00,
2013-06-09 04:32:00,60.8,59.9,29.79,WSW,247,3.0,9.0,97,0.00,,,0.11,Weather View 32 v70,2013-06-09 09:32:00,
2013-06-09 04:37:00,60.7,59.5,29.79,West,270,4.0,10.0,96,0.00,,,0.11,Weather View 32 v70,2013-06-09 09:37:00,
2013-06-09 04:42:00,60.6,59.2,29.79,West,270,6.0,10.0,95,0.00,,,0.11,Weather View 32 v70,2013-06-09 09:42:00,
2013-06-09 04:47:00,60.4,59.0,29.79,West,270,3.0,10.0,95,0.00,,,0.11,Weather View 32 v70,2013-06-09 09:47:00,
2013-06-09 04:52:00,60.3,58.9,29.79,West,270,4.0,10.0,95,0.00,,,0.11,Weather View 32 v70,2013-06-09 09:52:00,
2013-06-09 04:57:00,60.1,58.7,29.79,West,270,7.0,13.0,95,0.00,,,0.11,Weather View 32 v70,2013-06-09 09:57:00,
2013-06-09 05:02:00,59.9,59.0,29.79,SW,225,3.0,13.0,97,0.00,,,0.11,Weather View 32 v70,2013-06-09 10:02:00,
2013-06-09 05:07:00,59.5,58.9,29.80,West,270,6.0,14.0,98,0.00,,,0.11,Weather View 32 v70,2013-06-09 10:07:00,
2013-06-09 05:12:00,59.2,58.6,29.80,SW,225,8.0,14.0,98,0.00,,,0.11,Weather View 32 v70,2013-06-09 10:12:00,
2013-06-09 05:17:00,59.0,58.4,29.80,West,270,3.0,14.0,98,0.00,,,0.11,Weather View 32 v70,2013-06-09 10:17:00,
2013-06-09 05:22:00,58.9,58.3,29.80,WSW,247,7.0,14.0,98,0.00,,,0.11,Weather View 32 v70,2013-06-09 10:22:00,
2013-06-09 05:27:00,58.9,58.3,29.80,WSW,247,3.0,14.0,98,0.00,,,0.11,Weather View 32 v70,2013-06-09 10:27:00,
2013-06-09 05:32:00,58.9,58.3,29.80,West,270,5.0,14.0,98,0.00,,,0.11,Weather View 32 v70,2013-06-09 10:32:00,
2013-06-09 05:37:00,58.9,58.3,29.80,West,270,7.0,14.0,98,0.00,,,0.11,Weather View 32 v70,2013-06-09 10:37:00,
2013-06-09 05:42:00,58.9,58.3,29.80,West,270,5.0,14.0,98,0.00,,,0.11,Weather View 32 v70,2013-06-09 10:42:00,
2013-06-09 05:47:00,58.9,58.3,29.80,SW,225,8.0,14.0,98,0.00,,,0.11,Weather View 32 v70,2013-06-09 10:47:00,
2013-06-09 05:52:00,59.0,58.4,29.80,SW,225,14.0,14.0,98,0.00,,,0.11,Weather View 32 v70,2013-06-09 10:52:00,
2013-06-09 05:57:00,59.1,58.5,29.80,SW,225,2.0,14.0,98,0.00,,,0.11,Weather View 32 v70,2013-06-09 10:57:00,
2013-06-09 06:02:00,59.2,58.6,29.80,SSW,202,2.0,14.0,98,0.00,,,0.11,Weather View 32 v70,2013-06-09 11:02:00,
2013-06-09 06:07:00,59.2,58.6,29.80,SW,225,2.0,14.0,98,0.00,,,0.11,Weather View 32 v70,2013-06-09 11:07:00,
2013-06-09 06:12:00,59.2,58.6,29.80,West,270,6.0,14.0,98,0.00,,,0.11,Weather View 32 v70,2013-06-09 11:12:00,
2013-06-09 06:17:00,59.2,58.6,29.80,West,270,5.0,14.0,98,0.00,,,0.11,Weather View 32 v70,2013-06-09 11:17:00,
2013-06-09 06:22:00,59.1,58.5,29.81,West,270,5.0,14.0,98,0.00,,,0.11,Weather View 32 v70,2013-06-09 11:22:00,
2013-06-09 06:27:00,58.9,58.3,29.81,WNW,292,4.0,14.0,98,0.01,,,0.12,Weather View 32 v70,2013-06-09 11:27:00,
2013-06-09 06:32:00,58.9,58.3,29.81,SW,225,6.0,14.0,98,0.01,,,0.12,Weather View 32 v70,2013-06-09 11:32:00,
2013-06-09 06:37:00,58.9,58.3,29.81,WSW,247,2.0,14.0,98,0.02,,,0.13,Weather View 32 v70,2013-06-09 11:37:00,
2013-06-09 06:42:00,58.8,58.2,29.81,West,270,7.0,14.0,98,0.03,,,0.14,Weather View 32 v70,2013-06-09 11:42:00,
2013-06-09 06:48:00,58.7,58.1,29.81,WNW,292,4.0,14.0,98,0.04,,,0.15,Weather View 32 v70,2013-06-09 11:48:00,
2013-06-09 06:53:00,58.7,58.1,29.81,WSW,247,2.0,14.0,98,0.04,,,0.15,Weather View 32 v70,2013-06-09 11:53:00,
2013-06-09 06:58:00,58.7,58.1,29.81,West,270,4.0,13.0,98,0.04,,,0.15,Weather View 32 v70,2013-06-09 11:58:00,
2013-06-09 07:03:00,58.8,58.2,29.81,West,270,6.0,13.0,98,0.05,,,0.16,Weather View 32 v70,2013-06-09 12:03:00,
2013-06-09 07:08:00,58.8,58.2,29.81,WNW,292,4.0,13.0,98,0.05,,,0.16,Weather View 32 v70,2013-06-09 12:08:00,
2013-06-09 07:13:00,58.9,58.3,29.81,West,270,3.0,13.0,98,0.05,,,0.16,Weather View 32 v70,2013-06-09 12:13:00,
2013-06-09 07:18:00,58.9,58.3,29.81,West,270,3.0,13.0,98,0.05,,,0.16,Weather View 32 v70,2013-06-09 12:18:00,
2013-06-09 07:23:00,58.9,58.3,29.81,West,270,2.0,13.0,98,0.05,,,0.16,Weather View 32 v70,2013-06-09 12:23:00,
2013-06-09 07:28:00,59.1,58.5,29.81,WNW,292,4.0,13.0,98,0.04,,,0.16,Weather View 32 v70,2013-06-09 12:28:00,
2013-06-09 07:33:00,59.3,58.7,29.81,West,270,5.0,13.0,98,0.04,,,0.16,Weather View 32 v70,2013-06-09 12:33:00,
2013-06-09 07:38:00,59.4,58.5,29.81,WSW,247,5.0,12.0,97,0.03,,,0.16,Weather View 32 v70,2013-06-09 12:38:00,
2013-06-09 07:43:00,59.4,58.5,29.82,West,270,9.0,12.0,97,0.02,,,0.16,Weather View 32 v70,2013-06-09 12:43:00,
2013-06-09 07:48:00,59.5,58.4,29.82,West,270,4.0,13.0,96,0.01,,,0.16,Weather View 32 v70,2013-06-09 12:48:00,
2013-06-09 07:53:00,59.6,58.5,29.82,WSW,247,5.0,13.0,96,0.01,,,0.16,Weather View 32 v70,2013-06-09 12:53:00,
2013-06-09 07:58:00,59.7,58.6,29.82,SSW,202,1.0,13.0,96,0.01,,,0.16,Weather View 32 v70,2013-06-09 12:58:00,
2013-06-09 08:03:00,59.7,58.6,29.82,West,270,7.0,13.0,96,0.00,,,0.16,Weather View 32 v70,2013-06-09 13:03:00,
2013-06-09 08:08:00,59.9,58.5,29.82,WNW,292,13.0,14.0,95,0.00,,,0.16,Weather View 32 v70,2013-06-09 13:08:00,
2013-06-09 08:13:00,59.9,58.2,29.81,West,270,9.0,14.0,94,0.00,,,0.16,Weather View 32 v70,2013-06-09 13:13:00,
2013-06-09 08:18:00,59.9,58.2,29.82,WNW,292,5.0,14.0,94,0.00,,,0.16,Weather View 32 v70,2013-06-09 13:18:00,
2013-06-09 08:23:00,59.9,57.9,29.82,WNW,292,9.0,14.0,93,0.00,,,0.16,Weather View 32 v70,2013-06-09 13:23:00,
2013-06-09 08:28:00,60.1,58.1,29.82,WNW,292,12.0,14.0,93,0.00,,,0.16,Weather View 32 v70,2013-06-09 13:28:00,
2013-06-09 08:33:00,60.1,58.1,29.81,West,270,9.0,14.0,93,0.00,,,0.16,Weather View 32 v70,2013-06-09 13:33:00,
2013-06-09 08:38:00,60.1,58.1,29.82,West,270,9.0,14.0,93,0.00,,,0.16,Weather View 32 v70,2013-06-09 13:38:00,
2013-06-09 08:43:00,60.1,58.1,29.82,West,270,5.0,17.0,93,0.00,,,0.16,Weather View 32 v70,2013-06-09 13:43:00,
2013-06-09 08:48:00,60.2,58.2,29.82,West,270,4.0,17.0,93,0.00,,,0.16,Weather View 32 v70,2013-06-09 13:48:00,
2013-06-09 08:53:00,60.2,57.9,29.82,West,270,4.0,17.0,92,0.00,,,0.16,Weather View 32 v70,2013-06-09 13:53:00,
2013-06-09 08:58:00,60.3,58.3,29.82,West,270,2.0,17.0,93,0.00,,,0.16,Weather View 32 v70,2013-06-09 13:58:00,
2013-06-09 09:03:00,60.3,58.3,29.82,WNW,292,6.0,17.0,93,0.00,,,0.16,Weather View 32 v70,2013-06-09 14:03:00,
2013-06-09 09:08:00,60.3,58.3,29.82,West,270,5.0,17.0,93,0.00,,,0.16,Weather View 32 v70,2013-06-09 14:08:00,
2013-06-09 09:13:00,60.3,58.3,29.83,West,270,5.0,17.0,93,0.00,,,0.16,Weather View 32 v70,2013-06-09 14:13:00,
2013-06-09 09:18:00,60.3,58.3,29.82,WSW,247,11.0,17.0,93,0.00,,,0.16,Weather View 32 v70,2013-06-09 14:18:00,
2013-06-09 09:23:00,60.3,58.3,29.83,WSW,247,10.0,17.0,93,0.00,,,0.16,Weather View 32 v70,2013-06-09 14:23:00,
2013-06-09 09:28:00,60.3,58.3,29.82,WNW,292,9.0,17.0,93,0.00,,,0.16,Weather View 32 v70,2013-06-09 14:28:00,
2013-06-09 09:33:00,60.1,58.1,29.83,West,270,5.0,17.0,93,0.00,,,0.16,Weather View 32 v70,2013-06-09 14:33:00,
2013-06-09 09:38:00,59.8,58.4,29.83,West,270,9.0,17.0,95,0.00,,,0.16,Weather View 32 v70,2013-06-09 14:38:00,
2013-06-09 09:43:00,59.4,58.8,29.83,West,270,8.0,16.0,98,0.00,,,0.16,Weather View 32 v70,2013-06-09 14:43:00,
2013-06-09 09:48:00,58.9,58.3,29.83,West,270,8.0,19.0,98,0.01,,,0.17,Weather View 32 v70,2013-06-09 14:48:00,
2013-06-09 09:53:00,58.7,58.1,29.83,West,270,6.0,19.0,98,0.01,,,0.17,Weather View 32 v70,2013-06-09 14:53:00,
2013-06-09 09:58:00,58.7,58.1,29.83,West,270,9.0,19.0,98,0.01,,,0.17,Weather View 32 v70,2013-06-09 14:58:00,
2013-06-09 10:03:00,58.7,58.1,29.83,WSW,247,8.0,19.0,98,0.01,,,0.17,Weather View 32 v70,2013-06-09 15:03:00,
2013-06-09 10:08:00,58.9,58.3,29.84,WNW,292,9.0,19.0,98,0.01,,,0.17,Weather View 32 v70,2013-06-09 15:08:00,
2013-06-09 10:13:00,58.9,58.3,29.83,West,270,13.0,19.0,98,0.01,,,0.17,Weather View 32 v70,2013-06-09 15:13:00,
2013-06-09 10:18:00,58.9,58.3,29.84,WNW,292,7.0,19.0,98,0.01,,,0.17,Weather View 32 v70,2013-06-09 15:18:00,
2013-06-09 10:23:00,58.9,58.3,29.84,West,270,10.0,19.0,98,0.01,,,0.17,Weather View 32 v70,2013-06-09 15:23:00,
2013-06-09 10:28:00,59.2,58.6,29.84,West,270,10.0,19.0,98,0.01,,,0.17,Weather View 32 v70,2013-06-09 15:28:00,
2013-06-09 10:33:00,59.1,58.5,29.84,West,270,11.0,19.0,98,0.01,,,0.17,Weather View 32 v70,2013-06-09 15:33:00,
2013-06-09 10:38:00,59.3,58.7,29.84,West,270,12.0,19.0,98,0.01,,,0.17,Weather View 32 v70,2013-06-09 15:38:00,
2013-06-09 10:43:00,59.5,58.9,29.84,SW,225,8.0,22.0,98,0.01,,,0.17,Weather View 32 v70,2013-06-09 15:43:00,
2013-06-09 10:48:00,59.6,59.0,29.84,West,270,12.0,27.0,98,0.00,,,0.17,Weather View 32 v70,2013-06-09 15:48:00,
2013-06-09 10:53:00,59.8,58.9,29.84,West,270,10.0,27.0,97,0.00,,,0.17,Weather View 32 v70,2013-06-09 15:53:00,
2013-06-09 10:58:00,59.9,59.0,29.84,WNW,292,9.0,27.0,97,0.00,,,0.17,Weather View 32 v70,2013-06-09 15:58:00,
2013-06-09 11:03:00,59.9,59.0,29.84,WNW,292,10.0,27.0,97,0.00,,,0.17,Weather View 32 v70,2013-06-09 16:03:00,
2013-06-09 11:08:00,60.1,59.2,29.84,WSW,247,10.0,27.0,97,0.00,,,0.17,Weather View 32 v70,2013-06-09 16:08:00,
2013-06-09 11:13:00,60.1,59.2,29.85,West,270,7.0,27.0,97,0.00,,,0.17,Weather View 32 v70,2013-06-09 16:13:00,
2013-06-09 11:18:00,60.1,59.2,29.86,West,270,8.0,27.0,97,0.00,,,0.17,Weather View 32 v70,2013-06-09 16:18:00,
2013-06-09 11:23:00,60.1,59.2,29.85,West,270,12.0,27.0,97,0.00,,,0.17,Weather View 32 v70,2013-06-09 16:23:00,
2013-06-09 11:28:00,60.2,59.3,29.86,WNW,292,11.0,27.0,97,0.00,,,0.17,Weather View 32 v70,2013-06-09 16:28:00,
2013-06-09 11:33:00,60.1,59.2,29.86,WNW,292,9.0,27.0,97,0.00,,,0.17,Weather View 32 v70,2013-06-09 16:33:00,
2013-06-09 11:38:00,60.2,59.3,29.86,NW,315,7.0,27.0,97,0.00,,,0.17,Weather View 32 v70,2013-06-09 16:38:00,
2013-06-09 11:43:00,60.3,59.2,29.86,WNW,292,14.0,27.0,96,0.00,,,0.17,Weather View 32 v70,2013-06-09 16:43:00,
2013-06-09 11:48:00,60.5,59.1,29.86,West,270,13.0,22.0,95,0.00,,,0.17,Weather View 32 v70,2013-06-09 16:48:00,
2013-06-09 11:53:00,60.6,59.2,29.86,West,270,17.0,22.0,95,0.00,,,0.17,Weather View 32 v70,2013-06-09 16:53:00,
2013-06-09 11:58:00,60.8,59.4,29.86,NW,315,13.0,22.0,95,0.00,,,0.17,Weather View 32 v70,2013-06-09 16:58:00,
2013-06-09 12:03:00,60.8,59.1,29.86,West,270,11.0,24.0,94,0.00,,,0.17,Weather View 32 v70,2013-06-09 17:03:00,
2013-06-09 12:08:00,60.8,59.1,29.86,West,270,11.0,24.0,94,0.00,,,0.17,Weather View 32 v70,2013-06-09 17:08:00,
2013-06-09 12:13:00,60.9,59.2,29.87,West,270,10.0,24.0,94,0.00,,,0.17,Weather View 32 v70,2013-06-09 17:13:00,
2013-06-09 12:19:00,60.9,59.2,29.86,WNW,292,10.0,25.0,94,0.10,,,0.17,Weather View 32 v70,2013-06-09 17:19:00,
2013-06-09 12:24:00,60.9,59.2,29.86,WNW,292,18.0,25.0,94,0.00,,,0.17,Weather View 32 v70,2013-06-09 17:24:00,
2013-06-09 12:29:00,61.1,59.1,29.87,WNW,292,17.0,25.0,93,0.00,,,0.17,Weather View 32 v70,2013-06-09 17:29:00,
2013-06-09 12:34:00,61.1,59.1,29.87,WNW,292,7.0,25.0,93,0.00,,,0.17,Weather View 32 v70,2013-06-09 17:34:00,
2013-06-09 12:39:00,61.2,59.2,29.87,WNW,292,12.0,25.0,93,0.00,,,0.17,Weather View 32 v70,2013-06-09 17:39:00,
2013-06-09 12:44:00,61.3,59.3,29.87,WNW,292,11.0,25.0,93,0.00,,,0.17,Weather View 32 v70,2013-06-09 17:44:00,
2013-06-09 12:49:00,61.4,59.4,29.87,West,270,6.0,25.0,93,0.00,,,0.17,Weather View 32 v70,2013-06-09 17:49:00,
2013-06-09 12:54:00,61.4,59.4,29.88,WSW,247,4.0,25.0,93,0.00,,,0.17,Weather View 32 v70,2013-06-09 17:54:00,
2013-06-09 12:59:00,61.4,59.4,29.88,West,270,12.0,25.0,93,0.00,,,0.17,Weather View 32 v70,2013-06-09 17:59:00,
2013-06-09 13:04:00,61.4,59.4,29.88,NW,315,14.0,25.0,93,0.00,,,0.17,Weather View 32 v70,2013-06-09 18:04:00,
2013-06-09 13:09:00,61.5,59.5,29.88,WNW,292,14.0,25.0,93,0.00,,,0.17,Weather View 32 v70,2013-06-09 18:09:00,
2013-06-09 13:14:00,61.6,59.5,29.88,WNW,292,12.0,25.0,93,0.00,,,0.17,Weather View 32 v70,2013-06-09 18:14:00,
2013-06-09 13:19:00,61.8,59.4,29.88,WNW,292,8.0,24.0,92,0.00,,,0.17,Weather View 32 v70,2013-06-09 18:19:00,
2013-06-09 13:24:00,62.2,59.5,29.88,West,270,8.0,24.0,91,0.00,,,0.17,Weather View 32 v70,2013-06-09 18:24:00,
2013-06-09 13:29:00,62.6,59.6,29.88,NW,315,17.0,24.0,90,0.00,,,0.17,Weather View 32 v70,2013-06-09 18:29:00,
2013-06-09 13:34:00,62.9,59.0,29.88,West,270,18.0,24.0,87,0.00,,,0.17,Weather View 32 v70,2013-06-09 18:34:00,
2013-06-09 13:39:00,63.1,59.8,29.88,WNW,292,7.0,26.0,89,0.00,,,0.17,Weather View 32 v70,2013-06-09 18:39:00,
2013-06-09 13:44:00,63.3,59.7,29.88,NW,315,11.0,27.0,88,0.00,,,0.17,Weather View 32 v70,2013-06-09 18:44:00,
2013-06-09 13:49:00,63.3,59.4,29.89,WNW,292,11.0,27.0,87,0.00,,,0.17,Weather View 32 v70,2013-06-09 18:49:00,
2013-06-09 13:54:00,63.3,59.7,29.89,WNW,292,11.0,27.0,88,0.00,,,0.17,Weather View 32 v70,2013-06-09 18:54:00,
2013-06-09 13:59:00,63.3,59.4,29.90,NW,315,14.0,27.0,87,0.00,,,0.17,Weather View 32 v70,2013-06-09 18:59:00,
2013-06-09 14:04:00,63.4,59.1,29.90,WNW,292,15.0,27.0,86,0.00,,,0.17,Weather View 32 v70,2013-06-09 19:04:00,
2013-06-09 14:09:00,63.4,59.1,29.89,West,270,4.0,27.0,86,0.00,,,0.17,Weather View 32 v70,2013-06-09 19:09:00,
2013-06-09 14:14:00,63.5,59.5,29.90,NW,315,8.0,27.0,87,0.00,,,0.17,Weather View 32 v70,2013-06-09 19:14:00,
2013-06-09 14:19:00,63.7,59.7,29.90,WNW,292,12.0,27.0,87,0.00,,,0.17,Weather View 32 v70,2013-06-09 19:19:00,
2013-06-09 14:24:00,63.9,59.6,29.90,WNW,292,10.0,27.0,86,0.00,,,0.17,Weather View 32 v70,2013-06-09 19:24:00,
2013-06-09 14:29:00,64.1,59.5,29.90,NW,315,17.0,27.0,85,0.00,,,0.17,Weather View 32 v70,2013-06-09 19:29:00,
2013-06-09 14:34:00,64.3,59.0,29.89,NW,315,17.0,27.0,83,0.00,,,0.17,Weather View 32 v70,2013-06-09 19:34:00,
2013-06-09 14:39:00,64.4,58.8,29.89,WNW,292,21.0,27.0,82,0.00,,,0.17,Weather View 32 v70,2013-06-09 19:39:00,
2013-06-09 14:44:00,64.4,59.4,29.90,NW,315,16.0,25.0,84,0.00,,,0.17,Weather View 32 v70,2013-06-09 19:44:00,
2013-06-09 14:49:00,64.4,59.4,29.90,NW,315,15.0,25.0,84,0.00,,,0.17,Weather View 32 v70,2013-06-09 19:49:00,
2013-06-09 14:54:00,64.3,60.0,29.90,WNW,292,18.0,25.0,86,0.00,,,0.17,Weather View 32 v70,2013-06-09 19:54:00,
2013-06-09 14:59:00,64.3,59.7,29.90,WNW,292,15.0,25.0,85,0.00,,,0.17,Weather View 32 v70,2013-06-09 19:59:00,
2013-06-09 15:04:00,64.4,59.1,29.90,NW,315,16.0,25.0,83,0.00,,,0.17,Weather View 32 v70,2013-06-09 20:04:00,
2013-06-09 15:09:00,64.3,59.7,29.90,WNW,292,13.0,25.0,85,0.00,,,0.17,Weather View 32 v70,2013-06-09 20:09:00,
2013-06-09 15:15:00,64.3,59.7,29.90,NW,315,18.0,25.0,85,0.00,,,0.17,Weather View 32 v70,2013-06-09 20:15:00,
2013-06-09 15:20:00,64.4,59.8,29.91,WNW,292,11.0,25.0,85,0.00,,,0.17,Weather View 32 v70,2013-06-09 20:20:00,
2013-06-09 15:25:00,64.5,59.9,29.90,West,270,5.0,25.0,85,0.00,,,0.17,Weather View 32 v70,2013-06-09 20:25:00,
2013-06-09 15:30:00,64.4,59.8,29.91,WNW,292,12.0,25.0,85,0.00,,,0.17,Weather View 32 v70,2013-06-09 20:30:00,
2013-06-09 15:35:00,64.3,59.7,29.91,NW,315,16.0,25.0,85,0.00,,,0.17,Weather View 32 v70,2013-06-09 20:35:00,
2013-06-09 15:40:00,64.3,59.3,29.90,WNW,292,9.0,25.0,84,0.00,,,0.17,Weather View 32 v70,2013-06-09 20:40:00,
2013-06-09 15:45:00,64.4,59.4,29.90,WNW,292,12.0,25.0,84,0.00,,,0.17,Weather View 32 v70,2013-06-09 20:45:00,
2013-06-09 15:50:00,64.4,59.4,29.91,NW,315,13.0,25.0,84,0.00,,,0.17,Weather View 32 v70,2013-06-09 20:50:00,
2013-06-09 15:55:00,64.3,59.3,29.91,NW,315,16.0,24.0,84,0.00,,,0.17,Weather View 32 v70,2013-06-09 20:55:00,
2013-06-09 16:04:00,64.2,59.6,29.91,NW,315,6.0,23.0,85,0.00,,,0.17,Weather View 32 v70,2013-06-09 21:04:00,
2013-06-09 16:10:00,64.4,59.4,29.91,WNW,292,14.0,23.0,84,0.00,,,0.17,Weather View 32 v70,2013-06-09 21:10:00,
2013-06-09 16:15:00,64.6,59.0,29.92,NW,315,21.0,23.0,82,0.01,,,0.18,Weather View 32 v70,2013-06-09 21:15:00,
2013-06-09 16:20:00,64.7,59.1,29.91,NW,315,16.0,24.0,82,0.01,,,0.18,Weather View 32 v70,2013-06-09 21:20:00,
2013-06-09 16:25:00,64.9,59.3,29.91,WNW,292,12.0,24.0,82,0.01,,,0.18,Weather View 32 v70,2013-06-09 21:25:00,
2013-06-09 16:30:00,65.1,59.5,29.91,WNW,292,12.0,24.0,82,0.01,,,0.18,Weather View 32 v70,2013-06-09 21:30:00,
2013-06-09 16:35:00,65.0,59.4,29.91,NW,315,12.0,24.0,82,0.01,,,0.18,Weather View 32 v70,2013-06-09 21:35:00,
2013-06-09 16:40:00,64.9,59.3,29.91,NW,315,14.0,26.0,82,0.01,,,0.18,Weather View 32 v70,2013-06-09 21:40:00,
2013-06-09 16:45:00,64.9,59.6,29.92,NW,315,19.0,26.0,83,0.01,,,0.18,Weather View 32 v70,2013-06-09 21:45:00,
2013-06-09 16:50:00,64.9,59.9,29.91,NW,315,14.0,26.0,84,0.01,,,0.18,Weather View 32 v70,2013-06-09 21:50:00,
2013-06-09 16:55:00,64.9,59.6,29.92,WNW,292,9.0,26.0,83,0.01,,,0.18,Weather View 32 v70,2013-06-09 21:55:00,
2013-06-09 17:00:00,64.9,59.9,29.91,NW,315,16.0,26.0,84,0.01,,,0.18,Weather View 32 v70,2013-06-09 22:00:00,
2013-06-09 17:05:00,64.9,59.6,29.92,WNW,292,12.0,26.0,83,0.01,,,0.18,Weather View 32 v70,2013-06-09 22:05:00,
2013-06-09 17:10:00,64.9,59.3,29.92,NW,315,19.0,26.0,82,0.01,,,0.18,Weather View 32 v70,2013-06-09 22:10:00,
2013-06-09 17:15:00,64.9,59.6,29.92,WNW,292,13.0,26.0,83,0.00,,,0.18,Weather View 32 v70,2013-06-09 22:15:00,
2013-06-09 17:20:00,64.9,59.6,29.92,WNW,292,11.0,26.0,83,0.00,,,0.18,Weather View 32 v70,2013-06-09 22:20:00,
2013-06-09 17:25:00,64.9,59.9,29.92,WNW,292,10.0,26.0,84,0.00,,,0.18,Weather View 32 v70,2013-06-09 22:25:00,
2013-06-09 17:30:00,64.9,59.6,29.92,NW,315,10.0,26.0,83,0.00,,,0.18,Weather View 32 v70,2013-06-09 22:30:00,
2013-06-09 17:35:00,64.9,60.3,29.92,WNW,292,11.0,26.0,85,0.00,,,0.18,Weather View 32 v70,2013-06-09 22:35:00,
2013-06-09 17:40:00,64.8,59.5,29.92,West,270,15.0,26.0,83,0.00,,,0.18,Weather View 32 v70,2013-06-09 22:40:00,
2013-06-09 17:45:00,64.9,58.9,29.92,West,270,10.0,24.0,81,0.00,,,0.18,Weather View 32 v70,2013-06-09 22:45:00,
2013-06-09 17:50:00,64.9,58.9,29.93,NW,315,16.0,24.0,81,0.00,,,0.18,Weather View 32 v70,2013-06-09 22:50:00,
2013-06-09 17:55:00,64.9,58.9,29.92,NW,315,16.0,24.0,81,0.00,,,0.18,Weather View 32 v70,2013-06-09 22:55:00,
2013-06-09 18:00:00,64.9,58.6,29.92,NW,315,19.0,24.0,80,0.00,,,0.18,Weather View 32 v70,2013-06-09 23:00:00,
2013-06-09 18:05:00,64.9,58.9,29.93,WNW,292,12.0,24.0,81,0.00,,,0.18,Weather View 32 v70,2013-06-09 23:05:00,
2013-06-09 18:10:00,64.9,58.6,29.92,NW,315,17.0,24.0,80,0.00,,,0.18,Weather View 32 v70,2013-06-09 23:10:00,
2013-06-09 18:15:00,64.9,58.9,29.93,West,270,13.0,24.0,81,0.00,,,0.18,Weather View 32 v70,2013-06-09 23:15:00,
2013-06-09 18:20:00,64.9,58.9,29.93,NW,315,14.0,24.0,81,0.00,,,0.18,Weather View 32 v70,2013-06-09 23:20:00,
2013-06-09 18:25:00,64.9,59.3,29.93,West,270,6.0,24.0,82,0.00,,,0.18,Weather View 32 v70,2013-06-09 23:25:00,
2013-06-09 18:30:00,64.9,58.9,29.94,NW,315,12.0,24.0,81,0.00,,,0.18,Weather View 32 v70,2013-06-09 23:30:00,
2013-06-09 18:35:00,64.9,59.3,29.94,WNW,292,14.0,24.0,82,0.00,,,0.18,Weather View 32 v70,2013-06-09 23:35:00,
2013-06-09 18:40:00,64.9,59.3,29.94,NW,315,14.0,24.0,82,0.00,,,0.18,Weather View 32 v70,2013-06-09 23:40:00,
2013-06-09 18:45:00,65.1,59.1,29.94,NW,315,17.0,22.0,81,0.00,,,0.18,Weather View 32 v70,2013-06-09 23:45:00,
2013-06-09 18:50:00,65.1,58.8,29.94,NW,315,16.0,22.0,80,0.00,,,0.18,Weather View 32 v70,2013-06-09 23:50:00,
2013-06-09 18:55:00,65.3,59.3,29.94,West,270,6.0,22.0,81,0.00,,,0.18,Weather View 32 v70,2013-06-09 23:55:00,
2013-06-09 19:00:00,65.6,58.5,29.95,NW,315,9.0,25.0,78,0.00,,,0.18,Weather View 32 v70,2013-06-10 00:00:00,
2013-06-09 19:05:00,65.6,59.2,29.95,NW,315,15.0,25.0,80,0.00,,,0.18,Weather View 32 v70,2013-06-10 00:05:00,
2013-06-09 19:10:00,65.5,59.1,29.94,NW,315,9.0,25.0,80,0.00,,,0.18,Weather View 32 v70,2013-06-10 00:10:00,
2013-06-09 19:15:00,65.4,59.4,29.95,NW,315,8.0,25.0,81,0.00,,,0.18,Weather View 32 v70,2013-06-10 00:15:00,
2013-06-09 19:20:00,65.4,59.0,29.96,NW,315,10.0,25.0,80,0.00,,,0.18,Weather View 32 v70,2013-06-10 00:20:00,
2013-06-09 19:25:00,65.3,59.3,29.95,NW,315,12.0,25.0,81,0.00,,,0.18,Weather View 32 v70,2013-06-10 00:25:00,
2013-06-09 19:30:00,65.3,59.6,29.95,NW,315,10.0,25.0,82,0.00,,,0.18,Weather View 32 v70,2013-06-10 00:30:00,
2013-06-09 19:35:00,65.2,59.5,29.96,WNW,292,11.0,25.0,82,0.00,,,0.18,Weather View 32 v70,2013-06-10 00:35:00,
2013-06-09 19:40:00,65.1,59.1,29.96,WNW,292,6.0,25.0,81,0.00,,,0.18,Weather View 32 v70,2013-06-10 00:40:00,
2013-06-09 19:45:00,65.1,58.8,29.96,NW,315,15.0,25.0,80,0.00,,,0.18,Weather View 32 v70,2013-06-10 00:45:00,
2013-06-09 19:50:00,65.1,58.8,29.96,WNW,292,14.0,25.0,80,0.00,,,0.18,Weather View 32 v70,2013-06-10 00:50:00,
2013-06-09 19:55:00,65.1,59.1,29.96,NW,315,13.0,25.0,81,0.00,,,0.18,Weather View 32 v70,2013-06-10 00:55:00,
2013-06-09 20:00:00,64.9,58.9,29.96,NW,315,11.0,25.0,81,0.00,,,0.18,Weather View 32 v70,2013-06-10 01:00:00,
2013-06-09 20:05:00,65.0,59.7,29.96,WNW,292,8.0,21.0,83,0.00,,,0.18,Weather View 32 v70,2013-06-10 01:05:00,
2013-06-09 20:10:00,65.3,59.3,29.96,NW,315,12.0,21.0,81,0.00,,,0.18,Weather View 32 v70,2013-06-10 01:10:00,
2013-06-09 20:15:00,65.4,59.4,29.97,NW,315,13.0,21.0,81,0.00,,,0.18,Weather View 32 v70,2013-06-10 01:15:00,
2013-06-09 20:20:00,65.5,59.1,29.97,NW,315,14.0,20.0,80,0.00,,,0.18,Weather View 32 v70,2013-06-10 01:20:00,
2013-06-09 20:25:00,65.4,59.0,29.97,West,270,11.0,20.0,80,0.00,,,0.18,Weather View 32 v70,2013-06-10 01:25:00,
2013-06-09 20:30:00,65.3,59.3,29.98,NW,315,11.0,20.0,81,0.00,,,0.18,Weather View 32 v70,2013-06-10 01:30:00,
2013-06-09 20:35:00,64.9,59.3,29.97,NW,315,12.0,20.0,82,0.00,,,0.18,Weather View 32 v70,2013-06-10 01:35:00,
2013-06-09 20:40:00,64.6,59.3,29.97,NW,315,12.0,20.0,83,0.00,,,0.18,Weather View 32 v70,2013-06-10 01:40:00,
2013-06-09 20:45:00,64.3,59.0,29.98,NW,315,12.0,20.0,83,0.00,,,0.18,Weather View 32 v70,2013-06-10 01:45:00,
2013-06-09 20:50:00,64.2,58.9,29.97,NW,315,9.0,20.0,83,0.00,,,0.18,Weather View 32 v70,2013-06-10 01:50:00,
2013-06-09 20:55:00,64.0,59.1,29.98,WNW,292,7.0,20.0,84,0.00,,,0.18,Weather View 32 v70,2013-06-10 01:55:00,
2013-06-09 21:00:00,63.9,59.0,29.98,NW,315,7.0,20.0,84,0.00,,,0.18,Weather View 32 v70,2013-06-10 02:00:00,
2013-06-09 21:05:00,63.8,59.2,29.98,WNW,292,7.0,20.0,85,0.00,,,0.18,Weather View 32 v70,2013-06-10 02:05:00,
2013-06-09 21:10:00,63.8,59.2,29.98,NW,315,12.0,20.0,85,0.00,,,0.18,Weather View 32 v70,2013-06-10 02:10:00,
2013-06-09 21:15:00,63.9,59.3,29.98,NW,315,9.0,20.0,85,0.00,,,0.18,Weather View 32 v70,2013-06-10 02:15:00,
2013-06-09 21:20:00,63.8,59.2,29.98,WNW,292,9.0,20.0,85,0.00,,,0.18,Weather View 32 v70,2013-06-10 02:20:00,
2013-06-09 21:25:00,63.7,59.1,29.99,WNW,292,5.0,17.0,85,0.00,,,0.18,Weather View 32 v70,2013-06-10 02:25:00,
2013-06-09 21:30:00,63.6,59.0,29.99,West,270,1.0,16.0,85,0.00,,,0.18,Weather View 32 v70,2013-06-10 02:30:00,
2013-06-09 21:35:00,63.5,59.2,29.99,West,270,1.0,16.0,86,0.00,,,0.18,Weather View 32 v70,2013-06-10 02:35:00,
2013-06-09 21:40:00,63.4,58.8,29.99,NW,315,4.0,16.0,85,0.00,,,0.18,Weather View 32 v70,2013-06-10 02:40:00,
2013-06-09 21:45:00,63.4,59.5,29.99,NW,315,6.0,16.0,87,0.00,,,0.18,Weather View 32 v70,2013-06-10 02:45:00,
2013-06-09 21:50:00,63.4,59.5,30.00,NW,315,6.0,15.0,87,0.00,,,0.18,Weather View 32 v70,2013-06-10 02:50:00,
2013-06-09 21:55:00,63.4,59.1,30.00,NW,315,11.0,14.0,86,0.00,,,0.18,Weather View 32 v70,2013-06-10 02:55:00,
2013-06-09 22:00:00,63.3,59.4,30.00,NW,315,6.0,14.0,87,0.00,,,0.18,Weather View 32 v70,2013-06-10 03:00:00,
2013-06-09 22:05:00,63.3,59.4,30.00,NW,315,6.0,14.0,87,0.00,,,0.18,Weather View 32 v70,2013-06-10 03:05:00,
2013-06-09 22:10:00,63.2,59.6,30.00,NW,315,6.0,14.0,88,0.00,,,0.18,Weather View 32 v70,2013-06-10 03:10:00,
2013-06-09 22:15:00,63.1,59.5,30.00,NW,315,9.0,14.0,88,0.00,,,0.18,Weather View 32 v70,2013-06-10 03:15:00,
2013-06-09 22:20:00,63.1,59.5,30.01,NW,315,6.0,12.0,88,0.00,,,0.18,Weather View 32 v70,2013-06-10 03:20:00,
2013-06-09 22:25:00,63.0,59.7,30.00,NW,315,4.0,11.0,89,0.00,,,0.18,Weather View 32 v70,2013-06-10 03:25:00,
2013-06-09 22:30:00,62.9,59.0,30.01,NW,315,7.0,11.0,87,0.00,,,0.18,Weather View 32 v70,2013-06-10 03:30:00,
2013-06-09 22:35:00,62.9,59.0,30.01,WNW,292,9.0,12.0,87,0.00,,,0.18,Weather View 32 v70,2013-06-10 03:35:00,
2013-06-09 22:40:00,62.9,59.3,30.01,NW,315,6.0,12.0,88,0.00,,,0.18,Weather View 32 v70,2013-06-10 03:40:00,
2013-06-09 22:45:00,62.9,59.3,30.01,NW,315,7.0,12.0,88,0.00,,,0.18,Weather View 32 v70,2013-06-10 03:45:00,
2013-06-09 22:50:00,62.9,59.3,30.01,NW,315,7.0,12.0,88,0.00,,,0.18,Weather View 32 v70,2013-06-10 03:50:00,
2013-06-09 22:55:00,62.9,59.0,30.01,WNW,292,5.0,12.0,87,0.00,,,0.18,Weather View 32 v70,2013-06-10 03:55:00,
2013-06-09 23:00:00,62.8,59.2,30.01,NW,315,8.0,12.0,88,0.00,,,0.18,Weather View 32 v70,2013-06-10 04:00:00,
2013-06-09 23:01:00,62.8,59.2,30.01,NW,315,6.0,12.0,88,0.00,,,0.18,Weather View 32 v70,2013-06-10 04:01:00,
2013-06-09 23:02:00,62.9,59.3,30.01,WNW,292,7.0,12.0,88,0.00,,,0.18,Weather View 32 v70,2013-06-10 04:02:00,
2013-06-09 23:03:00,62.7,59.1,30.01,NW,315,6.0,12.0,88,0.00,,,0.18,Weather View 32 v70,2013-06-10 04:03:00,
2013-06-09 23:08:00,62.6,59.3,30.01,NW,315,6.0,12.0,89,0.00,,,0.18,Weather View 32 v70,2013-06-10 04:08:00,
2013-06-09 23:13:00,62.3,59.0,30.01,NW,315,2.0,12.0,89,0.00,,,0.18,Weather View 32 v70,2013-06-10 04:13:00,
2013-06-09 23:18:00,62.0,59.0,30.01,NW,315,4.0,12.0,90,0.00,,,0.18,Weather View 32 v70,2013-06-10 04:18:00,
2013-06-09 23:23:00,61.9,59.2,30.01,NW,315,4.0,12.0,91,0.00,,,0.18,Weather View 32 v70,2013-06-10 04:23:00,
2013-06-09 23:28:00,61.7,59.3,30.01,NW,315,3.0,12.0,92,0.00,,,0.18,Weather View 32 v70,2013-06-10 04:28:00,
2013-06-09 23:33:00,61.6,59.5,30.01,NW,315,2.0,12.0,93,0.00,,,0.18,Weather View 32 v70,2013-06-10 04:33:00,
2013-06-09 23:38:00,61.6,59.5,30.01,NW,315,2.0,11.0,93,0.00,,,0.18,Weather View 32 v70,2013-06-10 04:38:00,
2013-06-09 23:43:00,61.5,59.5,30.01,WNW,292,6.0,11.0,93,0.00,,,0.18,Weather View 32 v70,2013-06-10 04:43:00,
2013-06-09 23:48:00,61.4,59.4,30.01,NW,315,4.0,11.0,93,0.00,,,0.18,Weather View 32 v70,2013-06-10 04:48:00,
2013-06-09 23:53:00,61.3,59.3,30.02,WNW,292,8.0,11.0,93,0.00,,,0.18,Weather View 32 v70,2013-06-10 04:53:00,
2013-06-09 23:58:00,61.3,59.3,30.02,NW,315,7.0,10.0,93,0.00,,,0.18,Weather View 32 v70,2013-06-10 04:58:00,